Regional Weather Roundup
Issued by NWS

Home | Current Version | Previous Version | Text Only | Print | Product List | Glossary On
Versions: 1 2 3 4 5 6 7 8 9 10 11 12 13 14 15 16 17 18 19 20 21 22 23 24 25 26 27 28 29 30 31 32 33 34 35 36 37 38 39 40 41 42 43 44 45 46 47 48 49 50
000
ASUS43 KLMK 301702
RWRKY
KENTUCKY REGIONAL WEATHER ROUNDUP
NATIONAL WEATHER SERVICE LOUISVILLE KY
100 PM EDT TUE JUN 30 2015

NOTE "FAIR" INDICATES FEW OR NO CLOUDS BELOW 12,000 FEET
WITH NO SIGNIFICANT WEATHER AND/OR OBSTRUCTIONS TO VISIBILITY.

KYZ001>023-026-027-061>063-070>075-301800-
WESTERN AND SOUTH CENTRAL KENTUCKY

CITY           SKY/WX    TMP DP  RH WIND       PRES   REMARKS
PADUCAH        SUNNY     83  69  62 W7        29.91F
HENDERSON      SUNNY     82  70  65 W7        29.89S
OWENSBORO      SUNNY     84  70  63 W7        29.90F
HOPKINSVILLE   PTSUNNY   82  70  66 SW13      29.93F
BOWLING GREEN  MOSUNNY   83  71  67 W7        29.93S
GLASGOW        NOT AVBL
$$

KYZ024-025-028>034-038-045-046-053-301800-
NORTH CENTRAL KENTUCKY

CITY           SKY/WX    TMP DP  RH WIND       PRES   REMARKS
LOUISVILLE/SDF PTSUNNY   83  66  56 W10G20    29.88F
LOUISVILLE/LOU MOSUNNY   81  66  60 SW12      29.89F
FORT KNOX      MOSUNNY   81  67  63 SW10      29.89F
$$

KYZ035>037-039>044-047>052-055>060-089>105-301800-
NORTHEAST KENTUCKY

CITY           SKY/WX    TMP DP  RH WIND       PRES   REMARKS
LEXINGTON      MOSUNNY   77  65  66 SW9       29.93S
COVINGTON      PTSUNNY   78  66  66 SW13G23   29.86F
FRANKFORT      PTSUNNY   79  66  64 S8        29.91S
$$

KYZ054-064>069-076>088-106>120-301800-
SOUTHEAST KENTUCKY

CITY           SKY/WX    TMP DP  RH WIND       PRES   REMARKS
JACKSON        PTSUNNY   76  66  71 VRB3      29.96R
LONDON         MOSUNNY   81  62  52 W10G21    29.96R
SOMERSET       NOT AVBL
MIDDLESBORO    MOSUNNY   77  68  74 S6        29.98R
MONTICELLO     MOSUNNY   82  72  72 SW9       29.97F
$$




USA.gov is the U.S. government's official web portal to all federal, state and local government web resources and services.